This is the latest recevied weather packets stored in our database for station/object G4KVI. If no packets are shown the sender has not sent any weather packets the latest 10 day(s).
| Time | Temp. | Humidity | Pressure | Rain* | Wind** | Luminosity | Snow |
|---|---|---|---|---|---|---|---|
| 1788163204 | 17.22° C | 82% | 1012.7 hPa | 0 mm | - | 266 W/m² | - |
| 1788162904 | 17.22° C | 82% | 1012.5 hPa | 0 mm | - | 254 W/m² | - |
| 1788162604 | 17.22° C | 83% | 1012.4 hPa | 0 mm | - | 104 W/m² | - |
| 1788162304 | 17.22° C | 82% | 1012.4 hPa | 0 mm | - | 179 W/m² | - |
| 1788162004 | 17.22° C | 84% | 1012.1 hPa | 0 mm | - | 253 W/m² | - |
| 1788161704 | 16.67° C | 85% | 1012 hPa | 0 mm | - | 232 W/m² | - |
| 1788161404 | 16.67° C | 85% | 1011.9 hPa | 0 mm | - | 198 W/m² | - |
| 1788161104 | 16.67° C | 86% | 1011.9 hPa | 0 mm | - | 196 W/m² | - |
| 1788160804 | 16.11° C | 87% | 1011.6 hPa | 0 mm | - | 95 W/m² | - |
| 1788160504 | 16.11° C | 87% | 1011.7 hPa | 0 mm | - | 174 W/m² | - |
| 1788160204 | 16.11° C | 88% | 1011.6 hPa | 0 mm | - | 67 W/m² | - |
| 1788159904 | 16.11° C | 89% | 1011.5 hPa | 0 mm | - | 146 W/m² | - |
| 1788159604 | 15.56° C | 91% | 1011.1 hPa | 0 mm | - | 133 W/m² | - |
| 1788159304 | 15.56° C | 91% | 1011.2 hPa | 0 mm | - | 66 W/m² | - |
| 1788159004 | 15.56° C | 92% | 1011.1 hPa | 0 mm | - | 47 W/m² | - |
| 1788158704 | 15.56° C | 93% | 1011.1 hPa | 0 mm | - | 46 W/m² | - |
| 1788158404 | 15.56° C | 94% | 1011 hPa | 0 mm | - | 78 W/m² | - |
| 1788158103 | 15° C | 94% | 1011 hPa | 0 mm | - | 83 W/m² | - |
| 1788157804 | 15° C | 95% | 1010.9 hPa | 0 mm | - | 51 W/m² | - |
| 1788157504 | 15° C | 95% | 1010.9 hPa | 0 mm | - | 39 W/m² | - |
| 1788157204 | 14.44° C | 95% | 1010.6 hPa | 0 mm | - | 72 W/m² | - |
| 1788156904 | 14.44° C | 95% | 1010.5 hPa | 0 mm | - | 31 W/m² | - |
| 1788156604 | 14.44° C | 96% | 1010.5 hPa | 0 mm | - | 51 W/m² | - |
| 1788156304 | 14.44° C | 96% | 1010.3 hPa | 0 mm | - | 32 W/m² | - |
| 1788156003 | 13.89° C | 96% | 1010.6 hPa | 0 mm | - | 23 W/m² | - |
* Rain latest hour (hover to see other rain measurements)
** Current wind speed in m/s (hover to see current wind gust speed)